Year,Month,Day,Hour,Minute,Value (Times are PST for temperature in C)
2015,06,21,00,00,11.50
2015,06,21,00,01,11.60
2015,06,21,00,02,11.60
2015,06,21,00,03,11.70
2015,06,21,00,04,11.70
2015,06,21,00,05,11.80
2015,06,21,00,06,11.80
2015,06,21,00,07,11.80
2015,06,21,00,08,11.90
2015,06,21,00,09,11.90
2015,06,21,00,10,11.90
2015,06,21,00,11,11.90
2015,06,21,00,12,11.80
2015,06,21,00,13,11.80
2015,06,21,00,14,11.70
2015,06,21,00,15,11.60
2015,06,21,00,16,11.50
2015,06,21,00,17,11.40
2015,06,21,00,18,11.40
2015,06,21,00,19,11.40
2015,06,21,00,20,11.40
2015,06,21,00,21,11.30
2015,06,21,00,22,11.30
2015,06,21,00,23,11.20
2015,06,21,00,24,11.20
2015,06,21,00,25,11.10
2015,06,21,00,26,11.10
2015,06,21,00,27,11.10
2015,06,21,00,28,11.00
2015,06,21,00,29,11.00
2015,06,21,00,30,11.00
2015,06,21,00,31,10.90
2015,06,21,00,32,10.90
2015,06,21,00,33,10.80
2015,06,21,00,34,10.80
2015,06,21,00,35,10.80
2015,06,21,00,36,10.80
2015,06,21,00,37,10.90
2015,06,21,00,38,10.90
2015,06,21,00,39,10.90
2015,06,21,00,40,11.00
2015,06,21,00,41,11.00
2015,06,21,00,42,11.10
2015,06,21,00,43,11.10
2015,06,21,00,44,11.20
2015,06,21,00,45,11.30
2015,06,21,00,46,11.40
2015,06,21,00,47,11.40
2015,06,21,00,48,11.30
2015,06,21,00,49,11.30
2015,06,21,00,50,11.30
2015,06,21,00,51,11.30
2015,06,21,00,52,11.20
2015,06,21,00,53,11.20
2015,06,21,00,54,11.20
2015,06,21,00,55,11.20
2015,06,21,00,56,11.30
2015,06,21,00,57,11.30
2015,06,21,00,58,11.30
2015,06,21,00,59,11.30
2015,06,21,01,00,11.30
2015,06,21,01,01,11.30
2015,06,21,01,02,11.20
2015,06,21,01,03,11.20
2015,06,21,01,04,11.10
2015,06,21,01,05,11.10
2015,06,21,01,06,11.00
2015,06,21,01,07,11.00
2015,06,21,01,08,10.90
2015,06,21,01,09,10.80
2015,06,21,01,10,10.80
2015,06,21,01,11,10.80
2015,06,21,01,12,10.80
2015,06,21,01,13,10.80
2015,06,21,01,14,10.80
2015,06,21,01,15,10.80
2015,06,21,01,16,10.80
2015,06,21,01,17,10.80
2015,06,21,01,18,10.80
2015,06,21,01,19,10.80
2015,06,21,01,20,10.70
2015,06,21,01,21,10.70
2015,06,21,01,22,10.60
2015,06,21,01,23,10.60
2015,06,21,01,24,10.50
2015,06,21,01,25,10.50
2015,06,21,01,26,10.50
2015,06,21,01,27,10.50
2015,06,21,01,28,10.50
2015,06,21,01,29,10.50
2015,06,21,01,30,10.60
2015,06,21,01,31,10.60
2015,06,21,01,32,10.60
2015,06,21,01,33,10.70
2015,06,21,01,34,10.70
2015,06,21,01,35,10.70
2015,06,21,01,36,10.70
2015,06,21,01,37,10.70
2015,06,21,01,38,10.70
2015,06,21,01,39,10.70
2015,06,21,01,40,10.70
2015,06,21,01,41,10.60
2015,06,21,01,42,10.60
2015,06,21,01,43,10.70
2015,06,21,01,44,10.70
2015,06,21,01,45,10.70
2015,06,21,01,46,10.70
2015,06,21,01,47,10.80
2015,06,21,01,48,10.80
2015,06,21,01,49,10.80
2015,06,21,01,50,10.80
2015,06,21,01,51,10.80
2015,06,21,01,52,10.70
2015,06,21,01,53,10.70
2015,06,21,01,54,10.60
2015,06,21,01,55,10.50
2015,06,21,01,56,10.50
2015,06,21,01,57,10.40
2015,06,21,01,58,10.30
2015,06,21,01,59,10.30
2015,06,21,02,00,10.30
2015,06,21,02,01,10.30
2015,06,21,02,02,10.20
2015,06,21,02,03,10.20
2015,06,21,02,04,10.20
2015,06,21,02,05,10.20
2015,06,21,02,06,10.20
2015,06,21,02,07,10.10
2015,06,21,02,08,10.10
2015,06,21,02,09,10.10
2015,06,21,02,10,10.10
2015,06,21,02,11,10.10
2015,06,21,02,12,10.10
2015,06,21,02,13,10.10
2015,06,21,02,14,10.10
2015,06,21,02,15,10.10
2015,06,21,02,16,10.10
2015,06,21,02,17,10.10
2015,06,21,02,18,10.10
2015,06,21,02,19,10.20
2015,06,21,02,20,10.20
2015,06,21,02,21,10.20
2015,06,21,02,22,10.20
2015,06,21,02,23,10.20
2015,06,21,02,24,10.20
2015,06,21,02,25,10.30
2015,06,21,02,26,10.30
2015,06,21,02,27,10.30
2015,06,21,02,28,10.30
2015,06,21,02,29,10.30
2015,06,21,02,30,10.30
2015,06,21,02,31,10.40
2015,06,21,02,32,10.40
2015,06,21,02,33,10.40
2015,06,21,02,34,10.30
2015,06,21,02,35,10.30
2015,06,21,02,36,10.30
2015,06,21,02,37,10.30
2015,06,21,02,38,10.40
2015,06,21,02,39,10.40
2015,06,21,02,40,10.40
2015,06,21,02,41,10.30
2015,06,21,02,42,10.30
2015,06,21,02,43,10.30
2015,06,21,02,44,10.40
2015,06,21,02,45,10.40
2015,06,21,02,46,10.40
2015,06,21,02,47,10.40
2015,06,21,02,48,10.40
2015,06,21,02,49,10.40
2015,06,21,02,50,10.40
2015,06,21,02,51,10.30
2015,06,21,02,52,10.20
2015,06,21,02,53,10.20
2015,06,21,02,54,10.20
2015,06,21,02,55,10.10
2015,06,21,02,56,10.10
2015,06,21,02,57,10.10
2015,06,21,02,58,10.10
2015,06,21,02,59,10.00
2015,06,21,03,00,10.00
2015,06,21,03,01,10.00
2015,06,21,03,02,10.00
2015,06,21,03,03,10.00
2015,06,21,03,04,9.90
2015,06,21,03,05,9.90
2015,06,21,03,06,10.00
2015,06,21,03,07,10.10
2015,06,21,03,08,10.10
2015,06,21,03,09,10.10
2015,06,21,03,10,10.10
2015,06,21,03,11,10.20
2015,06,21,03,12,10.20
2015,06,21,03,13,10.30
2015,06,21,03,14,10.40
2015,06,21,03,15,10.40
2015,06,21,03,16,10.40
2015,06,21,03,17,10.30
2015,06,21,03,18,10.30
2015,06,21,03,19,10.30
2015,06,21,03,20,10.20
2015,06,21,03,21,10.10
2015,06,21,03,22,10.00
2015,06,21,03,23,10.00
2015,06,21,03,24,9.90
2015,06,21,03,25,9.90
2015,06,21,03,26,9.80
2015,06,21,03,27,9.80
2015,06,21,03,28,9.70
2015,06,21,03,29,9.70
2015,06,21,03,30,9.70
2015,06,21,03,31,9.60
2015,06,21,03,32,9.60
2015,06,21,03,33,9.60
2015,06,21,03,34,9.60
2015,06,21,03,35,9.60
2015,06,21,03,36,9.70
2015,06,21,03,37,9.70
2015,06,21,03,38,9.80
2015,06,21,03,39,9.80
2015,06,21,03,40,9.80
2015,06,21,03,41,9.90
2015,06,21,03,42,9.90
2015,06,21,03,43,9.90
2015,06,21,03,44,9.90
2015,06,21,03,45,9.90
2015,06,21,03,46,9.90
2015,06,21,03,47,9.90
2015,06,21,03,48,9.90
2015,06,21,03,49,9.80
2015,06,21,03,50,9.80
2015,06,21,03,51,9.80
2015,06,21,03,52,9.70
2015,06,21,03,53,9.70
2015,06,21,03,54,9.70
2015,06,21,03,55,9.70
2015,06,21,03,56,9.70
2015,06,21,03,57,9.60
2015,06,21,03,58,9.60
2015,06,21,03,59,9.60
2015,06,21,04,00,9.60
2015,06,21,04,01,9.50
2015,06,21,04,02,9.50
2015,06,21,04,03,9.50
2015,06,21,04,04,9.40
2015,06,21,04,05,9.30
2015,06,21,04,06,9.30
2015,06,21,04,07,9.30
2015,06,21,04,08,9.40
2015,06,21,04,09,9.40
2015,06,21,04,10,9.40
2015,06,21,04,11,9.40
2015,06,21,04,12,9.40
2015,06,21,04,13,9.40
2015,06,21,04,14,9.50
2015,06,21,04,15,9.50
2015,06,21,04,16,9.50
2015,06,21,04,17,9.50
2015,06,21,04,18,9.60
2015,06,21,04,19,9.60
2015,06,21,04,20,9.70
2015,06,21,04,21,9.70
2015,06,21,04,22,9.70
2015,06,21,04,23,9.70
2015,06,21,04,24,9.60
2015,06,21,04,25,9.60
2015,06,21,04,26,9.60
2015,06,21,04,27,9.60
2015,06,21,04,28,9.50
2015,06,21,04,29,9.50
2015,06,21,04,30,9.40
2015,06,21,04,31,9.40
2015,06,21,04,32,9.40
2015,06,21,04,33,9.40
2015,06,21,04,34,9.30
2015,06,21,04,35,9.30
2015,06,21,04,36,9.30
2015,06,21,04,37,9.30
2015,06,21,04,38,9.30
2015,06,21,04,39,9.20
2015,06,21,04,40,9.20
2015,06,21,04,41,9.30
2015,06,21,04,42,9.30
2015,06,21,04,43,9.30
2015,06,21,04,44,9.30
2015,06,21,04,45,9.40
2015,06,21,04,46,9.30
2015,06,21,04,47,9.30
2015,06,21,04,48,9.30
2015,06,21,04,49,9.30
2015,06,21,04,50,9.20
2015,06,21,04,51,9.30
2015,06,21,04,52,9.30
2015,06,21,04,53,9.50
2015,06,21,04,54,9.60
2015,06,21,04,55,9.70
2015,06,21,04,56,9.80
2015,06,21,04,57,9.80
2015,06,21,04,58,9.80
2015,06,21,04,59,9.60
2015,06,21,05,00,9.60
2015,06,21,05,01,9.50
2015,06,21,05,02,9.40
2015,06,21,05,03,9.40
2015,06,21,05,04,9.40
2015,06,21,05,05,9.40
2015,06,21,05,06,9.40
2015,06,21,05,07,9.40
2015,06,21,05,08,9.30
2015,06,21,05,09,9.30
2015,06,21,05,10,9.20
2015,06,21,05,11,9.10
2015,06,21,05,12,9.10
2015,06,21,05,13,9.10
2015,06,21,05,14,9.10
2015,06,21,05,15,9.10
2015,06,21,05,16,9.00
2015,06,21,05,17,9.00
2015,06,21,05,18,9.00
2015,06,21,05,19,9.10
2015,06,21,05,20,9.10
2015,06,21,05,21,9.20
2015,06,21,05,22,9.30
2015,06,21,05,23,9.30
2015,06,21,05,24,9.30
2015,06,21,05,25,9.30
2015,06,21,05,26,9.30
2015,06,21,05,27,9.20
2015,06,21,05,28,9.20
2015,06,21,05,29,9.20
2015,06,21,05,30,9.30
2015,06,21,05,31,9.30
2015,06,21,05,32,9.40
2015,06,21,05,33,9.40
2015,06,21,05,34,9.50
2015,06,21,05,35,9.50
2015,06,21,05,36,9.50
2015,06,21,05,37,9.50
2015,06,21,05,38,9.50
2015,06,21,05,39,9.40
2015,06,21,05,40,9.30
2015,06,21,05,41,9.40
2015,06,21,05,42,9.40
2015,06,21,05,43,9.40
2015,06,21,05,44,9.40
2015,06,21,05,45,9.40
2015,06,21,05,46,9.40
2015,06,21,05,47,9.30
2015,06,21,05,48,9.30
2015,06,21,05,49,9.30
2015,06,21,05,50,9.30
2015,06,21,05,51,9.30
2015,06,21,05,52,9.30
2015,06,21,05,53,9.40
2015,06,21,05,54,9.40
2015,06,21,05,55,9.50
2015,06,21,05,56,9.60
2015,06,21,05,57,9.60
2015,06,21,05,58,9.70
2015,06,21,05,59,9.70
2015,06,21,06,00,9.70
2015,06,21,06,01,9.70
2015,06,21,06,02,9.70
2015,06,21,06,03,9.80
2015,06,21,06,04,9.80
2015,06,21,06,05,9.90
2015,06,21,06,06,10.00
2015,06,21,06,07,10.10
2015,06,21,06,08,10.20
2015,06,21,06,09,10.20
2015,06,21,06,10,10.30
2015,06,21,06,11,10.30
2015,06,21,06,12,10.30
2015,06,21,06,13,10.30
2015,06,21,06,14,10.30
2015,06,21,06,15,10.30
2015,06,21,06,16,10.30
2015,06,21,06,17,10.30
2015,06,21,06,18,10.30
2015,06,21,06,19,10.30
2015,06,21,06,20,10.30
2015,06,21,06,21,10.30
2015,06,21,06,22,10.30
2015,06,21,06,23,10.40
2015,06,21,06,24,10.40
2015,06,21,06,25,10.40
2015,06,21,06,26,10.40
2015,06,21,06,27,10.50
2015,06,21,06,28,10.50
2015,06,21,06,29,10.50
2015,06,21,06,30,10.60
2015,06,21,06,31,10.60
2015,06,21,06,32,10.70
2015,06,21,06,33,10.70
2015,06,21,06,34,10.80
2015,06,21,06,35,10.80
2015,06,21,06,36,10.80
2015,06,21,06,37,10.90
2015,06,21,06,38,10.90
2015,06,21,06,39,11.00
2015,06,21,06,40,11.00
2015,06,21,06,41,11.10
2015,06,21,06,42,11.10
2015,06,21,06,43,11.10
2015,06,21,06,44,11.20
2015,06,21,06,45,11.30
2015,06,21,06,46,11.40
2015,06,21,06,47,11.40
2015,06,21,06,48,11.50
2015,06,21,06,49,11.60
2015,06,21,06,50,11.60
2015,06,21,06,51,11.70
2015,06,21,06,52,11.80
2015,06,21,06,53,11.80
2015,06,21,06,54,11.90
2015,06,21,06,55,11.90
2015,06,21,06,56,12.00
2015,06,21,06,57,12.10
2015,06,21,06,58,12.10
2015,06,21,06,59,12.20
2015,06,21,07,00,12.20
2015,06,21,07,01,12.30
2015,06,21,07,02,12.30
2015,06,21,07,03,12.30
2015,06,21,07,04,12.40
2015,06,21,07,05,12.50
2015,06,21,07,06,12.60
2015,06,21,07,07,12.70
2015,06,21,07,08,12.70
2015,06,21,07,09,12.80
2015,06,21,07,10,12.80
2015,06,21,07,11,12.90
2015,06,21,07,12,13.00
2015,06,21,07,13,13.10
2015,06,21,07,14,13.20
2015,06,21,07,15,13.30
2015,06,21,07,16,13.30
2015,06,21,07,17,13.40
2015,06,21,07,18,13.50
2015,06,21,07,19,13.50
2015,06,21,07,20,13.60
2015,06,21,07,21,13.70
2015,06,21,07,22,13.70
2015,06,21,07,23,13.80
2015,06,21,07,24,13.80
2015,06,21,07,25,13.90
2015,06,21,07,26,13.90
2015,06,21,07,27,13.90
2015,06,21,07,28,13.90
2015,06,21,07,29,13.90
2015,06,21,07,30,14.00
2015,06,21,07,31,14.00
2015,06,21,07,32,14.00
2015,06,21,07,33,14.10
2015,06,21,07,34,14.10
2015,06,21,07,35,14.10
2015,06,21,07,36,14.20
2015,06,21,07,37,14.20
2015,06,21,07,38,14.20
2015,06,21,07,39,14.30
2015,06,21,07,40,14.30
2015,06,21,07,41,14.40
2015,06,21,07,42,14.50
2015,06,21,07,43,14.60
2015,06,21,07,44,14.70
2015,06,21,07,45,14.80
2015,06,21,07,46,14.90
2015,06,21,07,47,15.00
2015,06,21,07,48,15.10
2015,06,21,07,49,15.30
2015,06,21,07,50,15.40
2015,06,21,07,51,15.40
2015,06,21,07,52,15.40
2015,06,21,07,53,15.40
2015,06,21,07,54,15.50
2015,06,21,07,55,15.50
2015,06,21,07,56,15.50
2015,06,21,07,57,15.50
2015,06,21,07,58,15.50
2015,06,21,07,59,15.60
2015,06,21,08,00,15.60
2015,06,21,08,01,15.60
2015,06,21,08,02,15.60
2015,06,21,08,03,15.60
2015,06,21,08,04,15.60
2015,06,21,08,05,15.50
2015,06,21,08,06,15.50
2015,06,21,08,07,15.50
2015,06,21,08,08,15.50
2015,06,21,08,09,15.50
2015,06,21,08,10,15.60
2015,06,21,08,11,15.60
2015,06,21,08,12,15.70
2015,06,21,08,13,15.70
2015,06,21,08,14,15.70
2015,06,21,08,15,15.70
2015,06,21,08,16,15.70
2015,06,21,08,17,15.70
2015,06,21,08,18,15.70
2015,06,21,08,19,15.80
2015,06,21,08,20,15.80
2015,06,21,08,21,15.80
2015,06,21,08,22,15.90
2015,06,21,08,23,16.00
2015,06,21,08,24,16.00
2015,06,21,08,25,16.00
2015,06,21,08,26,16.00
2015,06,21,08,27,16.00
2015,06,21,08,28,16.00
2015,06,21,08,29,16.00
2015,06,21,08,30,16.00
2015,06,21,08,31,15.90
2015,06,21,08,32,15.90
2015,06,21,08,33,16.00
2015,06,21,08,34,16.00
2015,06,21,08,35,16.10
2015,06,21,08,36,16.10
2015,06,21,08,37,16.20
2015,06,21,08,38,16.20
2015,06,21,08,39,16.20
2015,06,21,08,40,16.30
2015,06,21,08,41,16.30
2015,06,21,08,42,16.40
2015,06,21,08,43,16.50
2015,06,21,08,44,16.50
2015,06,21,08,45,16.60
2015,06,21,08,46,16.60
2015,06,21,08,47,16.70
2015,06,21,08,48,16.70
2015,06,21,08,49,16.80
2015,06,21,08,50,16.80
2015,06,21,08,51,16.90
2015,06,21,08,52,17.00
2015,06,21,08,53,17.00
2015,06,21,08,54,17.10
2015,06,21,08,55,17.10
2015,06,21,08,56,17.10
2015,06,21,08,57,17.10
2015,06,21,08,58,17.20
2015,06,21,08,59,17.20
2015,06,21,09,00,17.20
2015,06,21,09,01,17.20
2015,06,21,09,02,17.30
2015,06,21,09,03,17.20
2015,06,21,09,04,17.10
2015,06,21,09,05,17.00
2015,06,21,09,06,17.00
2015,06,21,09,07,16.90
2015,06,21,09,08,16.80
2015,06,21,09,09,16.80
2015,06,21,09,10,16.80
2015,06,21,09,11,16.80
2015,06,21,09,12,16.80
2015,06,21,09,13,16.80
2015,06,21,09,14,16.80
2015,06,21,09,15,16.90
2015,06,21,09,16,17.00
2015,06,21,09,17,17.00
2015,06,21,09,18,17.10
2015,06,21,09,19,17.10
2015,06,21,09,20,17.10
2015,06,21,09,21,17.20
2015,06,21,09,22,17.20
2015,06,21,09,23,17.20
2015,06,21,09,24,17.20
2015,06,21,09,25,17.10
2015,06,21,09,26,17.10
2015,06,21,09,27,17.10
2015,06,21,09,28,17.10
2015,06,21,09,29,17.10
2015,06,21,09,30,17.10
2015,06,21,09,31,17.20
2015,06,21,09,32,17.20
2015,06,21,09,33,17.20
2015,06,21,09,34,17.20
2015,06,21,09,35,17.20
2015,06,21,09,36,17.20
2015,06,21,09,37,17.10
2015,06,21,09,38,17.00
2015,06,21,09,39,16.90
2015,06,21,09,40,16.90
2015,06,21,09,41,16.90
2015,06,21,09,42,17.00
2015,06,21,09,43,17.10
2015,06,21,09,44,17.10
2015,06,21,09,45,17.10
2015,06,21,09,46,17.00
2015,06,21,09,47,16.90
2015,06,21,09,48,16.90
2015,06,21,09,49,16.90
2015,06,21,09,50,17.00
2015,06,21,09,51,17.10
2015,06,21,09,52,17.10
2015,06,21,09,53,17.20
2015,06,21,09,54,17.20
2015,06,21,09,55,17.20
2015,06,21,09,56,17.30
2015,06,21,09,57,17.30
2015,06,21,09,58,17.40
2015,06,21,09,59,17.60
2015,06,21,10,00,17.70
2015,06,21,10,01,17.80
2015,06,21,10,02,17.90
2015,06,21,10,03,18.00
2015,06,21,10,04,18.00
2015,06,21,10,05,18.00
2015,06,21,10,06,17.90
2015,06,21,10,07,18.00
2015,06,21,10,08,18.00
2015,06,21,10,09,18.00
2015,06,21,10,10,18.00
2015,06,21,10,11,18.10
2015,06,21,10,12,18.10
2015,06,21,10,13,18.30
2015,06,21,10,14,18.40
2015,06,21,10,15,18.40
2015,06,21,10,16,18.30
2015,06,21,10,17,18.20
2015,06,21,10,18,18.20
2015,06,21,10,19,18.10
2015,06,21,10,20,18.10
2015,06,21,10,21,18.00
2015,06,21,10,22,18.00
2015,06,21,10,23,17.90
2015,06,21,10,24,17.80
2015,06,21,10,25,17.80
2015,06,21,10,26,17.80
2015,06,21,10,27,17.80
2015,06,21,10,28,17.80
2015,06,21,10,29,17.80
2015,06,21,10,30,17.90
2015,06,21,10,31,18.00
2015,06,21,10,32,18.10
2015,06,21,10,33,18.20
2015,06,21,10,34,18.30
2015,06,21,10,35,18.50
2015,06,21,10,36,18.60
2015,06,21,10,37,18.70
2015,06,21,10,38,18.70
2015,06,21,10,39,18.70
2015,06,21,10,40,18.70
2015,06,21,10,41,18.80
2015,06,21,10,42,18.90
2015,06,21,10,43,19.00
2015,06,21,10,44,19.10
2015,06,21,10,45,19.10
2015,06,21,10,46,19.20
2015,06,21,10,47,19.20
2015,06,21,10,48,19.30
2015,06,21,10,49,19.30
2015,06,21,10,50,19.40
2015,06,21,10,51,19.40
2015,06,21,10,52,19.50
2015,06,21,10,53,19.60
2015,06,21,10,54,19.60
2015,06,21,10,55,19.70
2015,06,21,10,56,19.70
2015,06,21,10,57,19.80
2015,06,21,10,58,19.80
2015,06,21,10,59,19.90
2015,06,21,11,00,19.80
2015,06,21,11,01,19.80
2015,06,21,11,02,19.80
2015,06,21,11,03,19.80
2015,06,21,11,04,19.80
2015,06,21,11,05,19.70
2015,06,21,11,06,19.60
2015,06,21,11,07,19.50
2015,06,21,11,08,19.40
2015,06,21,11,09,19.40
2015,06,21,11,10,19.40
2015,06,21,11,11,19.50
2015,06,21,11,12,19.60
2015,06,21,11,13,19.70
2015,06,21,11,14,19.80
2015,06,21,11,15,19.80
2015,06,21,11,16,19.80
2015,06,21,11,17,19.80
2015,06,21,11,18,19.80
2015,06,21,11,19,19.80
2015,06,21,11,20,19.80
2015,06,21,11,21,19.90
2015,06,21,11,22,20.00
2015,06,21,11,23,20.00
2015,06,21,11,24,20.10
2015,06,21,11,25,20.20
2015,06,21,11,26,20.30
2015,06,21,11,27,20.30
2015,06,21,11,28,20.30
2015,06,21,11,29,20.30
2015,06,21,11,30,20.30
2015,06,21,11,31,20.30
2015,06,21,11,32,20.40
2015,06,21,11,33,20.50
2015,06,21,11,34,20.60
2015,06,21,11,35,20.70
2015,06,21,11,36,20.70
2015,06,21,11,37,20.70
2015,06,21,11,38,20.70
2015,06,21,11,39,20.70
2015,06,21,11,40,20.70
2015,06,21,11,41,20.70
2015,06,21,11,42,20.70
2015,06,21,11,43,20.70
2015,06,21,11,44,20.60
2015,06,21,11,45,20.70
2015,06,21,11,46,20.70
2015,06,21,11,47,20.80
2015,06,21,11,48,21.00
2015,06,21,11,49,21.10
2015,06,21,11,50,21.20
2015,06,21,11,51,21.30
2015,06,21,11,52,21.30
2015,06,21,11,53,21.30
2015,06,21,11,54,21.20
2015,06,21,11,55,21.20
2015,06,21,11,56,21.20
2015,06,21,11,57,21.20
2015,06,21,11,58,21.20
2015,06,21,11,59,21.20
2015,06,21,12,00,21.30
2015,06,21,12,01,21.30
2015,06,21,12,02,21.30
2015,06,21,12,03,21.30
2015,06,21,12,04,21.30
2015,06,21,12,05,21.30
2015,06,21,12,06,21.30
2015,06,21,12,07,21.30
2015,06,21,12,08,21.30
2015,06,21,12,09,21.40
2015,06,21,12,10,21.40
2015,06,21,12,11,21.50
2015,06,21,12,12,21.50
2015,06,21,12,13,21.50
2015,06,21,12,14,21.40
2015,06,21,12,15,21.40
2015,06,21,12,16,21.20
2015,06,21,12,17,21.20
2015,06,21,12,18,21.20
2015,06,21,12,19,21.30
2015,06,21,12,20,21.40
2015,06,21,12,21,21.50
2015,06,21,12,22,21.50
2015,06,21,12,23,21.50
2015,06,21,12,24,21.60
2015,06,21,12,25,21.60
2015,06,21,12,26,21.70
2015,06,21,12,27,21.70
2015,06,21,12,28,21.80
2015,06,21,12,29,21.90
2015,06,21,12,30,22.00
2015,06,21,12,31,22.00
2015,06,21,12,32,22.10
2015,06,21,12,33,22.10
2015,06,21,12,34,22.10
2015,06,21,12,35,22.10
2015,06,21,12,36,22.10
2015,06,21,12,37,22.00
2015,06,21,12,38,22.00
2015,06,21,12,39,21.90
2015,06,21,12,40,21.90
2015,06,21,12,41,21.90
2015,06,21,12,42,21.90
2015,06,21,12,43,21.90
2015,06,21,12,44,21.80
2015,06,21,12,45,21.80
2015,06,21,12,46,21.80
2015,06,21,12,47,21.80
2015,06,21,12,48,21.90
2015,06,21,12,49,22.00
2015,06,21,12,50,22.10
2015,06,21,12,51,22.20
2015,06,21,12,52,22.30
2015,06,21,12,53,22.50
2015,06,21,12,54,22.60
2015,06,21,12,55,22.80
2015,06,21,12,56,22.80
2015,06,21,12,57,22.90
2015,06,21,12,58,22.90
2015,06,21,12,59,23.00
2015,06,21,13,00,23.00
2015,06,21,13,01,23.10
2015,06,21,13,02,23.20
2015,06,21,13,03,23.20
2015,06,21,13,04,23.40
2015,06,21,13,05,23.50
2015,06,21,13,06,23.60
2015,06,21,13,07,23.70
2015,06,21,13,08,23.70
2015,06,21,13,09,23.70
2015,06,21,13,10,23.70
2015,06,21,13,11,23.60
2015,06,21,13,12,23.60
2015,06,21,13,13,23.60
2015,06,21,13,14,23.50
2015,06,21,13,15,23.50
2015,06,21,13,16,23.60
2015,06,21,13,17,23.60
2015,06,21,13,18,23.50
2015,06,21,13,19,23.40
2015,06,21,13,20,23.40
2015,06,21,13,21,23.30
2015,06,21,13,22,23.30
2015,06,21,13,23,23.30
2015,06,21,13,24,23.20
2015,06,21,13,25,23.20
2015,06,21,13,26,23.20
2015,06,21,13,27,23.20
2015,06,21,13,28,23.20
2015,06,21,13,29,23.30
2015,06,21,13,30,23.30
2015,06,21,13,31,23.30
2015,06,21,13,32,23.40
2015,06,21,13,33,23.40
2015,06,21,13,34,23.50
2015,06,21,13,35,23.50
2015,06,21,13,36,23.60
2015,06,21,13,37,23.70
2015,06,21,13,38,23.90
2015,06,21,13,39,23.90
2015,06,21,13,40,23.90
2015,06,21,13,41,23.90
2015,06,21,13,42,23.90
2015,06,21,13,43,24.00
2015,06,21,13,44,24.00
2015,06,21,13,45,24.00
2015,06,21,13,46,23.90
2015,06,21,13,47,24.00
2015,06,21,13,48,24.00
2015,06,21,13,49,24.10
2015,06,21,13,50,24.10
2015,06,21,13,51,24.20
2015,06,21,13,52,24.30
2015,06,21,13,53,24.30
2015,06,21,13,54,24.30
2015,06,21,13,55,24.20
2015,06,21,13,56,24.10
2015,06,21,13,57,24.00
2015,06,21,13,58,24.00
2015,06,21,13,59,24.00
2015,06,21,14,00,23.80
2015,06,21,14,01,23.80
2015,06,21,14,02,23.80
2015,06,21,14,03,23.70
2015,06,21,14,04,23.60
2015,06,21,14,05,23.60
2015,06,21,14,06,23.60
2015,06,21,14,07,23.60
2015,06,21,14,08,23.70
2015,06,21,14,09,23.70
2015,06,21,14,10,23.70
2015,06,21,14,11,23.70
2015,06,21,14,12,23.70
2015,06,21,14,13,23.60
2015,06,21,14,14,23.70
2015,06,21,14,15,23.70
2015,06,21,14,16,23.80
2015,06,21,14,17,23.90
2015,06,21,14,18,24.00
2015,06,21,14,19,23.90
2015,06,21,14,20,23.90
2015,06,21,14,21,23.90
2015,06,21,14,22,23.90
2015,06,21,14,23,23.90
2015,06,21,14,24,24.00
2015,06,21,14,25,24.10
2015,06,21,14,26,24.10
2015,06,21,14,27,24.10
2015,06,21,14,28,24.10
2015,06,21,14,29,24.10
2015,06,21,14,30,24.10
2015,06,21,14,31,24.10
2015,06,21,14,32,24.20
2015,06,21,14,33,24.20
2015,06,21,14,34,24.30
2015,06,21,14,35,24.30
2015,06,21,14,36,24.40
2015,06,21,14,37,24.50
2015,06,21,14,38,24.50
2015,06,21,14,39,24.60
2015,06,21,14,40,24.50
2015,06,21,14,41,24.40
2015,06,21,14,42,24.30
2015,06,21,14,43,24.20
2015,06,21,14,44,24.10
2015,06,21,14,45,24.10
2015,06,21,14,46,24.10
2015,06,21,14,47,24.20
2015,06,21,14,48,24.30
2015,06,21,14,49,24.30
2015,06,21,14,50,24.20
2015,06,21,14,51,24.20
2015,06,21,14,52,24.20
2015,06,21,14,53,24.20
2015,06,21,14,54,24.20
2015,06,21,14,55,24.20
2015,06,21,14,56,24.10
2015,06,21,14,57,24.10
2015,06,21,14,58,24.10
2015,06,21,14,59,24.20
2015,06,21,15,00,24.30
2015,06,21,15,01,24.40
2015,06,21,15,02,24.50
2015,06,21,15,03,24.50
2015,06,21,15,04,24.50
2015,06,21,15,05,24.50
2015,06,21,15,06,24.50
2015,06,21,15,07,24.50
2015,06,21,15,08,24.50
2015,06,21,15,09,24.50
2015,06,21,15,10,24.60
2015,06,21,15,11,24.60
2015,06,21,15,12,24.60
2015,06,21,15,13,24.60
2015,06,21,15,14,24.70
2015,06,21,15,15,24.70
2015,06,21,15,16,24.80
2015,06,21,15,17,24.80
2015,06,21,15,18,24.80
2015,06,21,15,19,24.80
2015,06,21,15,20,24.70
2015,06,21,15,21,24.70
2015,06,21,15,22,24.70
2015,06,21,15,23,24.70
2015,06,21,15,24,24.80
2015,06,21,15,25,24.80
2015,06,21,15,26,24.90
2015,06,21,15,27,24.90
2015,06,21,15,28,24.90
2015,06,21,15,29,25.00
2015,06,21,15,30,25.00
2015,06,21,15,31,24.90
2015,06,21,15,32,24.90
2015,06,21,15,33,24.80
2015,06,21,15,34,24.70
2015,06,21,15,35,24.70
2015,06,21,15,36,24.70
2015,06,21,15,37,24.70
2015,06,21,15,38,24.60
2015,06,21,15,39,24.60
2015,06,21,15,40,24.70
2015,06,21,15,41,24.70
2015,06,21,15,42,24.80
2015,06,21,15,43,24.80
2015,06,21,15,44,24.90
2015,06,21,15,45,25.00
2015,06,21,15,46,25.20
2015,06,21,15,47,25.20
2015,06,21,15,48,25.30
2015,06,21,15,49,25.30
2015,06,21,15,50,25.40
2015,06,21,15,51,25.40
2015,06,21,15,52,25.40
2015,06,21,15,53,25.40
2015,06,21,15,54,25.30
2015,06,21,15,55,25.30
2015,06,21,15,56,25.30
2015,06,21,15,57,25.20
2015,06,21,15,58,25.20
2015,06,21,15,59,25.20
2015,06,21,16,00,25.20
2015,06,21,16,01,25.20
2015,06,21,16,02,25.20
2015,06,21,16,03,25.20
2015,06,21,16,04,25.20
2015,06,21,16,05,25.30
2015,06,21,16,06,25.40
2015,06,21,16,07,25.50
2015,06,21,16,08,25.50
2015,06,21,16,09,25.60
2015,06,21,16,10,25.60
2015,06,21,16,11,25.60
2015,06,21,16,12,25.50
2015,06,21,16,13,25.50
2015,06,21,16,14,25.50
2015,06,21,16,15,25.60
2015,06,21,16,16,25.60
2015,06,21,16,17,25.60
2015,06,21,16,18,25.50
2015,06,21,16,19,25.40
2015,06,21,16,20,25.30
2015,06,21,16,21,25.30
2015,06,21,16,22,25.30
2015,06,21,16,23,25.20
2015,06,21,16,24,25.20
2015,06,21,16,25,25.30
2015,06,21,16,26,25.30
2015,06,21,16,27,25.40
2015,06,21,16,28,25.40
2015,06,21,16,29,25.40
2015,06,21,16,30,25.40
2015,06,21,16,31,25.40
2015,06,21,16,32,25.40
2015,06,21,16,33,25.40
2015,06,21,16,34,25.40
2015,06,21,16,35,25.30
2015,06,21,16,36,25.30
2015,06,21,16,37,25.20
2015,06,21,16,38,25.20
2015,06,21,16,39,25.20
2015,06,21,16,40,25.30
2015,06,21,16,41,25.30
2015,06,21,16,42,25.20
2015,06,21,16,43,25.30
2015,06,21,16,44,25.30
2015,06,21,16,45,25.30
2015,06,21,16,46,25.20
2015,06,21,16,47,25.20
2015,06,21,16,48,25.20
2015,06,21,16,49,25.20
2015,06,21,16,50,25.20
2015,06,21,16,51,25.20
2015,06,21,16,52,25.20
2015,06,21,16,53,25.30
2015,06,21,16,54,25.40
2015,06,21,16,55,25.40
2015,06,21,16,56,25.50
2015,06,21,16,57,25.50
2015,06,21,16,58,25.60
2015,06,21,16,59,25.60
2015,06,21,17,00,25.60
2015,06,21,17,01,25.60
2015,06,21,17,02,25.70
2015,06,21,17,03,25.70
2015,06,21,17,04,25.70
2015,06,21,17,05,25.70
2015,06,21,17,06,25.60
2015,06,21,17,07,25.60
2015,06,21,17,08,25.50
2015,06,21,17,09,25.40
2015,06,21,17,10,25.40
2015,06,21,17,11,25.40
2015,06,21,17,12,25.40
2015,06,21,17,13,25.40
2015,06,21,17,14,25.40
2015,06,21,17,15,25.40
2015,06,21,17,16,25.40
2015,06,21,17,17,25.40
2015,06,21,17,18,25.40
2015,06,21,17,19,25.40
2015,06,21,17,20,25.40
2015,06,21,17,21,25.40
2015,06,21,17,22,25.40
2015,06,21,17,23,25.40
2015,06,21,17,24,25.40
2015,06,21,17,25,25.40
2015,06,21,17,26,25.30